Tracking 29606 objects as of 19-Sep-2024
HD Live streaming from Space Station
objects crossing your sky now

STARLINK-6197

Track STARLINK-6197 now!
10-day predictions
STARLINK-6197 is classified as:


NORAD ID: 56767
Int'l Code: 2023-078A
Perigee: 576.9 km
Apogee: 581.3 km
Inclination: 70.0 °
Period: 96.1 minutes
Semi major axis: 6950 km
RCS: Unknown
Launch date: May 31, 2023
Source: United States (US)
Launch site: AIR FORCE WESTERN TEST RANGE (AFWTR)
Your satellite tracking list
Your tracking list is empty




NASA's NSSDC Master Catalog

Two Line Element Set (TLE):
1 56767U 23078A   24262.45765944  .00006823  00000-0  57866-3 0  9995
2 56767  69.9988 279.0616 0003115 263.8297  96.2508 14.98356821 71713
Source of the keplerian elements: AFSPC